Location: Newark
(48.3983°N, 16.0611°E)
Time: 05:30:49
(UTC+00:00)

N. Korean satellite - Visible Passes

Search period start: 27 January 2020 00:00
Search period end: 06 February 2020 00:00
Orbit: 454 x 507 km, 97.2° (Epoch: 26 January)

Date Brightness Start Highest point End Pass type
(mag) Time Alt. Az. Time Alt. Az. Time Alt. Az.
27 Jan 6.5 04:52:18 10° NNE 04:55:53 86° E 04:59:31 10° SSW visible
27 Jan 10.1 17:07:07 10° WSW 17:08:18 11° W 17:09:30 10° WNW visible
28 Jan 7.9 04:26:55 10° NNE 04:30:21 41° E 04:33:49 10° S visible
28 Jan 9.4 16:39:52 10° SSW 16:42:34 22° W 16:45:19 10° NW visible
29 Jan 9.2 04:01:52 10° NE 04:04:43 22° E 04:07:36 10° SE visible
29 Jan 7.4 05:34:57 10° N 05:38:08 30° WNW 05:41:22 10° SW visible
30 Jan 10.1 03:37:38 10° ENE 03:39:00 12° E 03:40:23 10° ESE visible
30 Jan 6.6 05:09:11 10° N 05:12:44 59° WNW 05:16:20 10° SSW visible
31 Jan 6.9 04:43:38 10° NNE 04:47:15 68° E 04:50:54 10° S visible
31 Jan 9.8 16:57:37 10° SW 16:59:33 14° W 17:01:30 10° NW visible
01 Feb 8.4 04:18:20 10° NNE 04:21:41 33° E 04:25:02 10° SSE visible
01 Feb 7.9 05:52:08 10° NNW 05:54:53 21° WNW 05:57:39 10° WSW visible
01 Feb 9.0 16:30:53 10° SSW 16:33:50 27° W 16:36:52 10° NW visible
02 Feb 9.5 03:53:26 10° NE 03:56:01 18° E 03:58:36 10° SE visible
02 Feb 7.1 05:26:10 10° N 05:29:32 37° WNW 05:32:57 10° SW visible
03 Feb 6.5 05:00:28 10° N 05:04:06 75° WNW 05:07:46 10° SSW visible
04 Feb 7.4 04:34:59 10° NNE 04:38:34 53° E 04:42:11 10° S visible
04 Feb 9.7 16:48:21 10° SW 16:50:47 18° W 16:53:14 10° NW visible
05 Feb 8.8 04:09:47 10° NE 04:12:58 27° E 04:16:11 10° SSE visible
05 Feb 7.7 05:43:14 10° NNW 05:46:18 25° WNW 05:49:21 10° WSW visible
